Location: ????????
(54.8751°N, 38.5756°E)
Time: 05:32:35
(UTC+00:00)

Cosmos 1092 Rocket - Pass Details

Date: 14 April 2024
Orbit: 955 x 993 km, 83.0° (Epoch: 23 May)

Event Time Altitude Azimuth Distance (km) Brightness Sun altitude
Exits shadow 00:41:45 - 185° (S) 2,927 6.1 -13.7°
Reaches altitude 10° 00:42:24 10° 185° (S) 2,681 5.9 -13.7°
Maximum altitude 00:48:32 83° 99° (E) 970 4.0 -13.0°
Drops below altitude 10° 00:54:43 10° 12° (NNE) 2,705 7.1 -12.3°
Sets 00:57:14 0° 12° (NNE) 3,659 7.8 -12.0°
